[[{"header":{"parameterUnit":"m.s-1","parameterCategory":1,"la1":30.2991,"la2":30.254,"lo1":-89.0895,"lo2":-89.0444,"dy":0.0017,"dx":0.0017,"nx":28,"ny":28,"refTime":"2025-09-08T09:00:00:Z","depth":0,"parameterNumber":2,"parameterNumberName":"U-component_of_WINDS"},"data":[0,0,0,0,0,0,0,0,0,0,0,0,0,0,0,0,0,0,0,0,0,0,0,0,0,0,0,0,0,0,0,0,0,0,0,0,0,0,0,0,0,0,0,0,0,0,0,0,0,0,0,0,0,0,0,0,0,0,-6.126,-6.126,0,-6.1257,-6.1257,-6.1257,-6.1127,-6.1123,-6.112,-6.1117,-6.1112,-6.1115,-6.1118,0,0,0,0,0,0,0,0,0,0,0,0,0,-6.1155,-6.1158,-6.126,-6.126,-6.126,-6.1257,-6.1257,-6.1257,-6.1127,-6.1123,-6.1119,-6.1115,-6.1111,-6.1115,-6.1118,0,0,0,0,0,0,0,0,0,0,0,0,0,-6.1181,-6.1159,-6.126,-6.1195,-6.1189,-6.1257,-6.1257,-6.1257,-6.1128,-6.1123,-6.1118,-6.1113,-6.111,-6.1115,-6.1119,-6.1248,0,0,-6.1133,-6.1135,0,0,0,0,0,0,0,0,-6.118,-6.1185,-6.1205,-6.12,-6.1193,-6.1187,-6.1218,-6.1254,-6.113,-6.1152,-6.1117,-6.1111,-6.1141,-6.1143,-6.1153,-6.1247,-6.1247,-6.1133,-6.1136,-6.1138,-6.1139,0,0,0,0,0,0,0,-6.1178,-6.1185,-6.1259,-6.1205,-6.1198,-6.1166,-6.1165,-6.1224,-6.1175,-6.1149,-6.114,-6.1141,-6.1137,-6.1149,-6.1152,-6.1247,-6.1133,-6.1137,-6.114,-6.1142,-6.1448,-6.1453,0,0,0,0,0,0,-6.1186,-6.1184,-6.1259,-6.1259,-6.1174,-6.1172,-6.117,-6.1194,-6.1174,-6.1166,-6.1146,-6.1135,-6.1144,-6.1147,-6.1151,-6.1301,-6.1138,-6.1142,-6.1145,-6.1443,-6.1449,-6.1455,0,0,0,0,0,0,-6.1184,-6.1193,-6.1259,-6.1219,-6.1225,-6.118,-6.1207,-6.1197,-6.1208,-6.1171,-6.1161,-6.1167,-6.114,-6.1145,-6.1225,-6.1299,-6.1144,-6.1148,-6.1436,-6.1445,-6.1452,-6.1601,0,0,0,0,0,0,-6.1181,-6.1194,-6.1242,-6.1221,-6.1227,-6.1333,-6.1212,-6.12,-6.1217,-6.1203,-6.1188,-6.1181,-6.1136,-6.1219,-6.123,-6.1302,-6.1152,-6.1429,-6.144,-6.145,-6.1589,-6.1613,-6.1633,0,0,0,0,0,-6.1178,-6.1283,-6.1245,-6.1255,-6.1287,-6.1337,-6.1341,-6.1288,-6.1223,-6.1271,-6.1248,-6.1181,-6.129,-6.1228,-6.1239,-6.1314,-6.1424,-6.1437,-6.1449,-6.1579,-6.1608,-6.1633,0,0,0,0,0,0,-6.1312,-6.1279,-6.1236,-6.1338,-6.1342,-6.1315,-6.1374,-6.132,-6.1342,-6.1328,-6.1261,-6.1259,-6.135,-6.134,-6.1272,-6.1438,-6.1346,-6.1361,-6.1441,-6.1468,-6.149,-6.149,-6.1155,0,0,0,0,0,-6.1354,-6.1399,-6.1367,-6.1459,-6.1464,-6.142,-6.1439,-6.1398,-6.1399,-6.14,-6.1382,-6.1385,-6.142,-6.1444,-6.1473,-6.1588,-6.1583,-6.1645,-6.1668,-6.1686,-6.1699,-6.1759,-6.1787,-6.1495,-6.1495,-6.1495,0,0,-6.144,-6.1428,-6.1459,-6.1486,-6.1484,-6.1531,-6.1421,-6.1475,-6.151,-6.1408,-6.1482,-6.147,-6.1469,-6.1567,-6.1609,-6.1562,-6.1779,-6.1702,-6.1717,-6.1719,-6.1775,-6.1802,-6.1827,-6.1504,-6.1502,-6.1501,0,0,-6.1621,-6.1616,-6.1693,-6.1694,-6.1693,-6.1663,-6.1682,-6.1665,-6.1653,-6.1727,-6.1652,-6.1692,-6.1753,-6.1756,-6.1765,-6.1951,-6.1891,-6.1963,-6.2078,-6.2138,-6.2161,-6.2181,-6.2246,-6.2271,-6.1976,-6.1977,-6.1977,0,-6.1727,-6.1795,-6.1739,-6.1799,-6.1813,-6.1725,-6.1802,-6.1806,-6.1815,-6.1827,-6.1774,-6.185,-6.1844,-6.1941,-6.1987,-6.1998,-6.2017,-6.1963,-6.2162,-6.2181,-6.2199,-6.2261,-6.2286,-6.1986,-6.1985,-6.1984,-6.1983,0,-6.1926,-6.1975,-6.2037,-6.2049,-6.2071,-6.2139,-6.2094,-6.2123,-6.2081,-6.2057,-6.2135,-6.2124,-6.2151,-6.2172,-6.2131,-6.2264,-6.2235,-6.2174,-6.2078,-6.2237,-6.2293,-6.2317,-6.1998,-6.1995,-6.1992,-6.199,0,0,-6.2187,-6.217,-6.2193,-6.2198,-6.2193,-6.2229,-6.2295,-6.2321,-6.2347,-6.2358,-6.2411,-6.2466,-6.241,-6.2421,-6.2381,-6.2433,-6.2581,-6.2365,-6.2364,-6.2405,-6.2727,-6.2772,-6.2801,-6.2543,-6.2547,-6.255,-6.2727,0,-6.2361,-6.2471,-6.2424,-6.2539,-6.2583,-6.2502,-6.2559,-6.2562,-6.2543,-6.2578,-6.2556,-6.2596,-6.2519,-6.2526,-6.2574,-6.2553,-6.2644,-6.254,-6.259,-6.2593,-6.2591,-6.283,-6.2877,-6.3044,-6.2749,-6.2753,-6.2755,0,-6.2577,-6.2598,-6.2718,-6.2705,-6.2722,-6.2774,-6.2796,-6.2831,-6.2833,-6.2816,-6.283,-6.2779,-6.2842,-6.275,-6.2837,-6.2767,-6.2786,-6.2779,-6.2784,-6.2785,-6.2682,-6.2836,-6.3096,-6.3121,-6.279,-6.2787,-6.2785,0,-6.2755,-6.2812,-6.2891,-6.2898,-6.2887,-6.2925,-6.2922,-6.292,-6.294,-6.2959,-6.2971,-6.2998,-6.3013,-6.3035,-6.2992,-6.2929,-6.3086,-6.299,-6.3072,-6.3073,-6.3106,-6.3104,-6.3371,-6.3122,-6.3122,-6.3121,-6.3121,0,-6.2952,-6.3028,-6.2971,-6.302,-6.3103,-6.3049,-6.3133,-6.3121,-6.3121,-6.3166,-6.3098,-6.3142,-6.3084,-6.3122,-6.309,-6.3167,-6.3174,-6.3161,-6.3151,-6.3166,-6.3168,-6.3176,-6.3162,-6.3128,-6.3126,-6.3125,-6.3124,0,-6.3162,-6.3128,-6.3208,-6.3192,-6.319,-6.3252,-6.3237,-6.3282,-6.3259,-6.3317,-6.3328,-6.3292,-6.3334,-6.3295,-6.3334,-6.3313,-6.3415,-6.339,-6.3415,-6.3407,-6.3491,-6.3483,-6.3771,-6.3805,-6.3536,-6.3538,-6.354,0,-6.3289,-6.3346,-6.3337,-6.3363,-6.3364,-6.3406,-6.3427,-6.3377,-6.3401,-6.341,-6.3454,-6.3491,-6.3517,-6.3588,-6.3565,-6.3596,-6.3569,-6.3668,-6.3573,-6.3587,-6.3569,-6.3566,-6.3571,-6.3687,-6.369,-6.3693,-6.3695,0,-6.3519,-6.3499,-6.3531,-6.3559,-6.3586,-6.3605,-6.3619,-6.3644,-6.3593,-6.3624,-6.3667,-6.3687,-6.3729,-6.3766,-6.379,-6.3787,-6.3733,-6.3726,-6.3746,-6.376,-6.3772,-6.3766,-6.3465,-6.3718,-6.3716,-6.3714,-6.3713,-6.3712,-6.369,-6.3737,-6.3739,-6.3777,-6.3783,-6.3798,-6.384,-6.3823,-6.3858,-6.3888,-6.3858,-6.391,-6.3913,-6.394,-6.3943,-6.3984,-6.3942,-6.3972,-6.3979,-6.3986,-6.3998,-6.3768,-6.3988,-6.3987,-6.3987,-6.3986,-6.3985,0,-6.3914,-6.3912,-6.3949,-6.3971,-6.4002,-6.3951,-6.3964,-6.3993,-6.404,-6.4048,-6.4076,-6.4126,-6.4163,-6.4145,-6.4177,-6.4213,-6.4189,-6.4223,-6.4218,-6.4219,-6.4034,-6.4013,-6.4241,-6.4241,-6.4241,-6.4241,-6.4241,-6.4241,-6.4034,-6.4112,-6.4094,-6.4174,-6.4171,-6.4222,-6.4234,-6.4248,-6.4254,-6.4313,-6.4344,-6.4332,-6.433,-6.4362,-6.4393,-6.4387,-6.4401,-6.4444,-6.4429,-6.4257,-6.4231,-6.4207,-6.4187,-6.4448,-6.4448,-6.461,-6.4611,-6.4612]},{"header":{"parameterUnit":"m.s-1","parameterCategory":1,"la1":30.2991,"la2":30.254,"lo1":-89.0895,"lo2":-89.0444,"dy":0.0017,"dx":0.0017,"nx":28,"ny":28,"refTime":"2025-09-08T09:00:00:Z","depth":0,"parameterNumber":3,"parameterNumberName":"V-component_of_WINDS"},"data":[0,0,0,0,0,0,0,0,0,0,0,0,0,0,0,0,0,0,0,0,0,0,0,0,0,0,0,0,0,0,0,0,0,0,0,0,0,0,0,0,0,0,0,0,0,0,0,0,0,0,0,0,0,0,0,0,0,0,1.6498,1.6497,0,1.6424,1.6423,1.6422,1.643,1.6431,1.6432,1.6434,1.6349,1.6346,1.6343,0,0,0,0,0,0,0,0,0,0,0,0,0,1.6641,1.6638,1.6498,1.6497,1.6496,1.6424,1.6423,1.6422,1.643,1.6431,1.6433,1.6434,1.635,1.6347,1.6343,0,0,0,0,0,0,0,0,0,0,0,0,0,1.6574,1.6637,1.6498,1.6492,1.649,1.6424,1.6423,1.6421,1.6429,1.6431,1.6433,1.6435,1.6352,1.6347,1.6342,1.6275,0,0,1.6327,1.6324,0,0,0,0,0,0,0,0,1.6578,1.6568,1.6493,1.6492,1.649,1.6438,1.6442,1.6372,1.6429,1.6452,1.6434,1.6436,1.6377,1.637,1.6352,1.6271,1.6267,1.6326,1.6323,1.6321,1.6319,0,0,0,0,0,0,0,1.6582,1.6572,1.6468,1.6492,1.649,1.649,1.6483,1.6429,1.6405,1.645,1.6451,1.6442,1.6376,1.6357,1.635,1.6266,1.6326,1.6322,1.6319,1.6317,1.6127,1.6125,0,0,0,0,0,0,1.6589,1.6575,1.6471,1.6466,1.654,1.6486,1.6478,1.6453,1.6406,1.6401,1.6441,1.6443,1.6364,1.6356,1.6347,1.6265,1.6321,1.6316,1.6313,1.6129,1.6126,1.6124,0,0,0,0,0,0,1.6592,1.658,1.6474,1.6521,1.6507,1.6482,1.6454,1.645,1.6431,1.6399,1.6394,1.6425,1.6365,1.6354,1.6293,1.6262,1.6314,1.6309,1.6131,1.6128,1.6125,1.61,0,0,0,0,0,0,1.6596,1.6581,1.6556,1.652,1.6505,1.6423,1.6452,1.6448,1.6423,1.6425,1.6383,1.6378,1.6366,1.6301,1.6288,1.6256,1.6305,1.6134,1.613,1.6126,1.6104,1.6097,1.6091,0,0,0,0,0,1.6602,1.655,1.6555,1.6542,1.6474,1.6421,1.6412,1.6402,1.6421,1.6394,1.6374,1.6379,1.6269,1.6295,1.6281,1.6246,1.6136,1.6131,1.6127,1.6107,1.6098,1.6091,0,0,0,0,0,0,1.6579,1.6545,1.655,1.6486,1.6457,1.6423,1.6389,1.6393,1.6355,1.6358,1.6346,1.6336,1.6275,1.6255,1.6285,1.6179,1.6204,1.6197,1.6194,1.6186,1.6179,1.6184,1.6301,0,0,0,0,0,1.6568,1.653,1.6501,1.6448,1.6433,1.6414,1.639,1.6386,1.6354,1.634,1.6316,1.6282,1.624,1.6212,1.6172,1.6102,1.6092,1.6072,1.6066,1.6061,1.6053,1.6014,1.6005,1.6109,1.6109,1.6109,0,0,1.6542,1.6519,1.6495,1.6443,1.6419,1.6379,1.6403,1.6358,1.6327,1.6333,1.6274,1.6256,1.6218,1.6152,1.6122,1.6134,1.6023,1.6055,1.6051,1.6046,1.6009,1.5999,1.599,1.6106,1.6107,1.6107,0,0,1.6473,1.6453,1.6406,1.6383,1.6349,1.6337,1.6327,1.6292,1.6281,1.6223,1.6227,1.6189,1.6117,1.609,1.6066,1.5992,1.5994,1.5979,1.5944,1.5906,1.5898,1.5891,1.5862,1.5853,1.5972,1.5972,1.5972,0,1.6444,1.6385,1.638,1.6336,1.6313,1.632,1.6272,1.6249,1.6202,1.6185,1.62,1.6111,1.6085,1.6014,1.5996,1.5978,1.5963,1.5982,1.59,1.5893,1.5886,1.5858,1.5848,1.5971,1.5971,1.5971,1.5971,0,1.635,1.631,1.6276,1.6234,1.6207,1.616,1.6148,1.6121,1.612,1.6106,1.6047,1.6018,1.5972,1.5955,1.5952,1.5883,1.5892,1.5904,1.5928,1.5874,1.5848,1.5838,1.5968,1.5969,1.5969,1.597,0,0,1.6261,1.6221,1.6208,1.619,1.6155,1.6122,1.6076,1.6034,1.6011,1.5979,1.5939,1.588,1.5892,1.5865,1.586,1.5828,1.5769,1.5843,1.5842,1.5829,1.569,1.568,1.5668,1.5773,1.5771,1.5769,1.5693,0,1.6188,1.6109,1.6106,1.6033,1.5995,1.6003,1.5963,1.5936,1.5923,1.5887,1.5872,1.583,1.5849,1.5833,1.5802,1.5783,1.5741,1.5789,1.5732,1.573,1.5738,1.5654,1.5642,1.5572,1.5683,1.5681,1.568,0,1.609,1.6059,1.5984,1.5956,1.594,1.5904,1.5866,1.5833,1.5803,1.5795,1.5768,1.5768,1.572,1.5749,1.5681,1.5714,1.5691,1.5679,1.5676,1.5667,1.5699,1.5641,1.5549,1.5538,1.5664,1.5666,1.5667,0,1.6031,1.597,1.5918,1.5902,1.5868,1.5843,1.5827,1.5799,1.5775,1.5742,1.5725,1.5686,1.5663,1.5632,1.5621,1.5644,1.5553,1.5581,1.5543,1.5543,1.552,1.5521,1.5421,1.5511,1.5511,1.5511,1.5511,0,1.5947,1.59,1.5891,1.5858,1.5806,1.5802,1.575,1.5735,1.5711,1.5674,1.5679,1.5644,1.5633,1.5596,1.5587,1.5531,1.5521,1.5512,1.551,1.551,1.5511,1.5492,1.5496,1.5508,1.5509,1.5509,1.551,0,1.587,1.5862,1.5805,1.578,1.5772,1.5734,1.5712,1.5679,1.5669,1.5622,1.5611,1.5593,1.555,1.5537,1.5484,1.5478,1.5412,1.5416,1.5423,1.5422,1.5384,1.5387,1.5265,1.5248,1.5352,1.5351,1.535,0,1.5815,1.578,1.5752,1.573,1.5714,1.5677,1.5653,1.5649,1.5624,1.5589,1.556,1.5518,1.5484,1.5414,1.5395,1.5355,1.5355,1.5316,1.5349,1.535,1.5352,1.5353,1.5349,1.5308,1.5307,1.5306,1.5305,0,1.5719,1.5718,1.5685,1.5651,1.5624,1.5596,1.557,1.555,1.5542,1.5513,1.5471,1.5445,1.5393,1.535,1.531,1.5292,1.5296,1.5296,1.5285,1.5283,1.5288,1.5283,1.5403,1.5298,1.5298,1.5299,1.5299,1.53,1.565,1.5619,1.5596,1.5559,1.554,1.5515,1.5484,1.5472,1.5437,1.5396,1.5396,1.5349,1.5321,1.5268,1.5248,1.521,1.5221,1.5205,1.5201,1.5196,1.5192,1.5297,1.5203,1.5203,1.5204,1.5204,1.5204,0,1.5552,1.5539,1.5506,1.547,1.5441,1.5453,1.5425,1.5399,1.5359,1.5334,1.5302,1.5253,1.5213,1.5192,1.5152,1.5125,1.5126,1.5115,1.5115,1.511,1.5185,1.5198,1.5115,1.5115,1.5115,1.5115,1.5115,1.5115,1.5498,1.5446,1.5443,1.5382,1.5368,1.5325,1.5307,1.5285,1.5265,1.5211,1.5179,1.5168,1.5144,1.5103,1.5066,1.5061,1.5044,1.5031,1.5027,1.5096,1.5105,1.5113,1.5126,1.5028,1.5028,1.4955,1.4954,1.4953]}]]